| time (UTC) | temp F | wind direction | speed MPH | gust MPH | rain 1hr in | rain 24hr in | rain mn in | humidity % | barometer mb |
| 20260507073100 | 54 | 220 | 0.0 | 1.0 | 0.00 | 0.00 | 0.00 | 65 | 1004.9 |
| 20260507071555 | 54 | 219 | 0.0 | 1.0 | 0.00 | 0.00 | 0.00 | 65 | 1004.8 |
| 20260507070054 | 55 | 219 | 0.0 | 1.0 | 0.00 | 0.00 | 0.00 | 64 | 1004.9 |
| 20260507064553 | 55 | 289 | 0.0 | 1.0 | 0.00 | 0.00 | 0.00 | 62 | 1005.0 |
| 20260507063049 | 56 | 302 | 0.0 | 0.0 | 0.00 | 0.00 | 0.00 | 60 | 1004.9 |
| 20260507061547 | 56 | 302 | 0.0 | 3.0 | 0.00 | 0.00 | 0.00 | 59 | 1005.1 |
| 20260507060045 | 56 | 275 | 0.0 | 1.0 | 0.00 | 0.00 | 0.00 | 60 | 1005.3 |
| 20260507054543 | 56 | 302 | 0.0 | 1.0 | 0.00 | 0.00 | 0.00 | 60 | 1005.2 |
| 20260507053043 | 56 | 319 | 0.0 | 2.0 | 0.00 | 0.00 | 0.00 | 60 | 1005.0 |
| 20260507051543 | 56 | 284 | 0.0 | 2.0 | 0.00 | 0.00 | 0.00 | 60 | 1005.5 |
| 20260507050043 | 56 | 200 | 0.0 | 1.0 | 0.00 | 0.00 | 0.00 | 61 | 1005.1 |
| 20260507044548 | 56 | 196 | 0.0 | 0.0 | 0.00 | 0.00 | 0.00 | 61 | 1005.0 |
| 20260507043055 | 56 | 197 | 0.0 | 0.0 | 0.00 | 0.00 | 0.00 | 60 | 1004.9 |
| 20260507041540 | 57 | 185 | 0.0 | 0.0 | 0.00 | 0.00 | 0.00 | 58 | 1004.8 |
| 20260507040041 | 58 | 184 | 0.0 | 0.0 | 0.00 | 0.00 | 0.00 | 58 | 1004.8 |
| 20260507034541 | 58 | 150 | 0.0 | 2.0 | 0.00 | 0.00 | 0.00 | 56 | 1004.5 |
| 20260507033039 | 60 | 130 | 0.0 | 1.0 | 0.00 | 0.00 | 0.00 | 52 | 1004.3 |
| 20260507031542 | 61 | 130 | 0.0 | 3.0 | 0.00 | 0.00 | 0.00 | 46 | 1004.0 |
| 20260507030036 | 62 | 139 | 0.0 | 1.0 | 0.00 | 0.00 | 0.00 | 42 | 1004.9 |
| 20260507024536 | 62 | 185 | 0.0 | 2.0 | 0.00 | 0.00 | 0.00 | 41 | 1004.7 |
| 20260507023035 | 62 | 52 | 1.0 | 5.0 | 0.00 | 0.00 | 0.00 | 37 | 1004.7 |
| 20260507021538 | 63 | 165 | 0.0 | 2.0 | 0.00 | 0.00 | 0.00 | 33 | 1005.2 |
| 20260507020046 | 64 | 182 | 0.0 | 0.0 | 0.00 | 0.00 | 0.00 | 32 | 1004.7 |
| 20260507014535 | 64 | 182 | 0.0 | 3.0 | 0.00 | 0.00 | 0.00 | 30 | 1004.3 |
| 20260507013033 | 65 | 39 | 0.0 | 1.0 | 0.00 | 0.00 | 0.00 | 30 | 1003.8 |
| 20260507011543 | 66 | 336 | 0.0 | 1.0 | 0.00 | 0.00 | 0.00 | 29 | 1003.7 |
| 20260507010036 | 66 | 20 | 0.0 | 1.0 | 0.00 | 0.00 | 0.00 | 28 | 1003.9 |
| 20260507004532 | 67 | 211 | 0.0 | 1.0 | 0.00 | 0.00 | 0.00 | 28 | 1003.8 |
| 20260507003031 | 68 | 40 | 0.0 | 2.0 | 0.00 | 0.00 | 0.00 | 28 | 1003.7 |
| 20260507001602 | 68 | 68 | 0.0 | 2.0 | 0.00 | 0.00 | 0.00 | 27 | 1003.7 |
| 20260507000035 | 68 | 41 | 1.0 | 4.0 | 0.00 | 0.00 | 0.00 | 27 | 1003.8 |
| 20260506234528 | 67 | 37 | 1.0 | 3.0 | 0.00 | 0.00 | 0.00 | 27 | 1003.6 |
| 20260506233028 | 67 | 38 | 1.0 | 5.0 | 0.00 | 0.00 | 0.00 | 27 | 1003.7 |
| 20260506231527 | 68 | 15 | 1.0 | 4.0 | 0.00 | 0.00 | 0.00 | 26 | 1003.6 |
| 20260506230035 | 68 | 37 | 1.0 | 5.0 | 0.00 | 0.00 | 0.00 | 27 | 1003.8 |
| 20260506224523 | 68 | 41 | 0.0 | 4.0 | 0.00 | 0.00 | 0.00 | 27 | 1003.9 |
| 20260506223028 | 68 | 24 | 1.0 | 4.0 | 0.00 | 0.00 | 0.00 | 26 | 1004.2 |
| 20260506221520 | 67 | 32 | 2.0 | 7.0 | 0.00 | 0.00 | 0.00 | 26 | 1004.3 |
| 20260506220017 | 68 | 17 | 1.0 | 4.0 | 0.00 | 0.00 | 0.00 | 26 | 1004.6 |
| 20260506214514 | 68 | 200 | 0.0 | 5.0 | 0.00 | 0.00 | 0.00 | 28 | 1004.7 |
| 20260506213012 | 69 | 37 | 0.0 | 4.0 | 0.00 | 0.00 | 0.00 | 26 | 1005.1 |
| 20260506211509 | 69 | 129 | 1.0 | 5.0 | 0.00 | 0.00 | 0.00 | 26 | 1005.3 |
| 20260506210009 | 68 | 210 | 1.0 | 7.0 | 0.00 | 0.00 | 0.00 | 27 | 1005.5 |
| 20260506204505 | 68 | 41 | 0.0 | 5.0 | 0.00 | 0.00 | 0.00 | 26 | 1005.4 |
| 20260506203002 | 67 | 31 | 2.0 | 5.0 | 0.00 | 0.00 | 0.00 | 27 | 1005.5 |
| 20260506201559 | 66 | 317 | 0.0 | 7.0 | 0.00 | 0.00 | 0.00 | 27 | 1005.8 |
| 20260506200101 | 66 | 35 | 1.0 | 6.0 | 0.00 | 0.00 | 0.00 | 27 | 1005.9 |
| 20260506194555 | 66 | 37 | 2.0 | 5.0 | 0.00 | 0.00 | 0.00 | 28 | 1006.1 |
| 20260506193056 | 64 | 217 | 0.0 | 5.0 | 0.00 | 0.00 | 0.00 | 28 | 1006.3 |
| 20260506191547 | 63 | 196 | 1.0 | 5.0 | 0.00 | 0.00 | 0.00 | 30 | 1006.5 |
| 20260506190050 | 62 | 134 | 2.0 | 7.0 | 0.00 | 0.00 | 0.00 | 30 | 1006.8 |
| 20260506184547 | 62 | 224 | 1.0 | 7.0 | 0.00 | 0.00 | 0.00 | 31 | 1006.9 |
| 20260506183044 | 62 | 186 | 1.0 | 6.0 | 0.00 | 0.00 | 0.00 | 32 | 1007.2 |
| 20260506181542 | 61 | 146 | 1.0 | 9.0 | 0.00 | 0.00 | 0.00 | 32 | 1007.3 |
| 20260506180036 | 61 | 215 | 1.0 | 7.0 | 0.00 | 0.00 | 0.00 | 32 | 1007.4 |
| 20260506174536 | 60 | 195 | 1.0 | 8.0 | 0.00 | 0.00 | 0.00 | 32 | 1007.6 |
| 20260506173028 | 58 | 275 | 0.0 | 8.0 | 0.00 | 0.00 | 0.00 | 35 | 1008.0 |
| 20260506171532 | 57 | 105 | 1.0 | 5.0 | 0.00 | 0.00 | 0.00 | 35 | 1008.3 |
| 20260506170029 | 57 | 139 | 2.0 | 6.0 | 0.00 | 0.00 | 0.00 | 36 | 1008.5 |
| 20260506164541 | 57 | 142 | 0.0 | 4.0 | 0.00 | 0.00 | 0.00 | 37 | 1008.6 |
| 20260506163019 | 56 | 193 | 1.0 | 4.0 | 0.00 | 0.00 | 0.00 | 37 | 1008.7 |
| 20260506161514 | 54 | 179 | 1.0 | 6.0 | 0.00 | 0.00 | 0.00 | 38 | 1008.9 |
| 20260506160011 | 54 | 190 | 1.0 | 6.0 | 0.00 | 0.00 | 0.00 | 39 | 1009.2 |
| 20260506154506 | 52 | 176 | 0.0 | 8.0 | 0.00 | 0.00 | 0.00 | 41 | 1009.5 |
| 20260506153003 | 51 | 207 | 1.0 | 4.0 | 0.00 | 0.00 | 0.00 | 42 | 1009.6 |
| 20260506151604 | 49 | 209 | 0.0 | 5.0 | 0.00 | 0.00 | 0.00 | 43 | 1009.8 |
| 20260506150104 | 48 | 199 | 0.0 | 3.0 | 0.00 | 0.00 | 0.00 | 43 | 1010.0 |
| 20260506144551 | 46 | 128 | 1.0 | 6.0 | 0.00 | 0.00 | 0.00 | 46 | 1010.2 |
| 20260506143047 | 44 | 202 | 0.0 | 3.0 | 0.00 | 0.00 | 0.00 | 48 | 1010.3 |
| 20260506141545 | 42 | 199 | 0.0 | 4.0 | 0.00 | 0.00 | 0.00 | 50 | 1010.3 |
| 20260506140039 | 40 | 180 | 1.0 | 3.0 | 0.00 | 0.00 | 0.00 | 52 | 1010.5 |
| 20260506134535 | 39 | 139 | 1.0 | 5.0 | 0.00 | 0.00 | 0.00 | 54 | 1010.7 |
| 20260506133038 | 37 | 169 | 0.0 | 2.0 | 0.00 | 0.00 | 0.00 | 56 | 1010.8 |
| 20260506131534 | 36 | 128 | 0.0 | 2.0 | 0.00 | 0.00 | 0.00 | 57 | 1010.9 |
| 20260506130034 | 35 | 132 | 0.0 | 2.0 | 0.00 | 0.00 | 0.00 | 58 | 1011.1 |
| 20260506124531 | 33 | 139 | 0.0 | 2.0 | 0.00 | 0.00 | 0.00 | 61 | 1011.1 |
| 20260506123029 | 32 | 125 | 0.0 | 2.0 | 0.00 | 0.00 | 0.00 | 62 | 1011.2 |
| 20260506121528 | 32 | 138 | 0.0 | 1.0 | 0.00 | 0.00 | 0.00 | 62 | 1011.4 |
| 20260506120047 | 32 | 132 | 0.0 | 1.0 | 0.00 | 0.00 | 0.00 | 62 | 1011.5 |
| 20260506114524 | 32 | 136 | 0.0 | 2.0 | 0.00 | 0.00 | 0.00 | 62 | 1011.7 |
| 20260506113022 | 32 | 133 | 0.0 | 1.0 | 0.00 | 0.00 | 0.00 | 62 | 1011.8 |
| 20260506111520 | 32 | 127 | 0.0 | 1.0 | 0.00 | 0.00 | 0.00 | 62 | 1012.1 |
| 20260506110018 | 32 | 134 | 0.0 | 1.0 | 0.00 | 0.00 | 0.00 | 62 | 1012.2 |
| 20260506104526 | 32 | 129 | 0.0 | 1.0 | 0.00 | 0.00 | 0.00 | 62 | 1012.4 |
| 20260506103033 | 32 | 141 | 0.0 | 1.0 | 0.00 | 0.00 | 0.00 | 61 | 1012.6 |
| 20260506101510 | 33 | 157 | 0.0 | 1.0 | 0.00 | 0.00 | 0.00 | 60 | 1012.7 |
| 20260506100009 | 33 | 136 | 0.0 | 2.0 | 0.00 | 0.00 | 0.00 | 60 | 1012.7 |
| 20260506094505 | 34 | 142 | 0.0 | 2.0 | 0.00 | 0.00 | 0.00 | 59 | 1013.0 |
| 20260506093002 | 34 | 174 | 0.0 | 1.0 | 0.00 | 0.00 | 0.00 | 59 | 1013.1 |
| 20260506091502 | 34 | 205 | 0.0 | 3.0 | 0.00 | 0.00 | 0.00 | 59 | 1013.4 |
| 20260506090104 | 34 | 120 | 0.0 | 3.0 | 0.00 | 0.00 | 0.00 | 59 | 1013.6 |
| 20260506084626 | 35 | 152 | 0.0 | 1.0 | 0.00 | 0.00 | 0.00 | 58 | 1013.6 |
| 20260506083054 | 35 | 134 | 0.0 | 2.0 | 0.00 | 0.00 | 0.00 | 57 | 1013.8 |
| 20260506081556 | 35 | 131 | 0.0 | 2.0 | 0.00 | 0.00 | 0.00 | 57 | 1014.0 |